This is the latest recevied weather packets stored in our database for station/object KC1DMA. If no packets are shown the sender has not sent any weather packets the latest 10 day(s).
| Time | Temp. | Humidity | Pressure | Rain* | Wind** | Luminosity | Snow |
|---|---|---|---|---|---|---|---|
| 1777345933 | 9.44° C | 67% | 1026.1 hPa | - | - | 0 W/m² | - |
| 1777345630 | 9.44° C | 67% | 1026.4 hPa | - | - | 0 W/m² | - |
| 1777345326 | 9.44° C | 67% | 1026.3 hPa | - | - | 0 W/m² | - |
| 1777345023 | 9.44° C | 67% | 1026.3 hPa | - | - | 0 W/m² | - |
| 1777344719 | 9.44° C | 67% | 1026.3 hPa | - | - | 0 W/m² | - |
| 1777344415 | 9.44° C | 67% | 1026.1 hPa | - | - | 0 W/m² | - |
| 1777344114 | 9.44° C | 66% | 1026.4 hPa | - | - | 0 W/m² | - |
| 1777343810 | 9.44° C | 68% | 1026.4 hPa | - | - | 0 W/m² | - |
| 1777343508 | 9.44° C | 68% | 1026.5 hPa | - | - | 0 W/m² | - |
| 1777343205 | 9.44° C | 68% | 1026.5 hPa | - | - | 0 W/m² | - |
| 1777342902 | 10° C | 68% | 1026.3 hPa | - | - | 0 W/m² | - |
| 1777342599 | 10° C | 67% | 1026.5 hPa | - | - | 0 W/m² | - |
| 1777342296 | 10.56° C | 66% | 1026.6 hPa | - | - | 0 W/m² | - |
| 1777341993 | 10° C | 67% | 1026.6 hPa | - | - | 0 W/m² | - |
| 1777341690 | 10° C | 70% | 1026.9 hPa | - | - | 0 W/m² | - |
| 1777341386 | 10° C | 68% | 1026.5 hPa | - | - | 0 W/m² | - |
| 1777341082 | 10.56° C | 66% | 1026.6 hPa | - | - | 0 W/m² | - |
| 1777340779 | 10.56° C | 65% | 1026.5 hPa | - | - | 0 W/m² | - |
| 1777340478 | 10.56° C | 66% | 1026.5 hPa | - | - | 0 W/m² | - |
| 1777340175 | 10.56° C | 66% | 1026.4 hPa | - | - | 0 W/m² | - |
| 1777339871 | 10.56° C | 65% | 1026.6 hPa | - | - | 0 W/m² | - |
| 1777339569 | 10.56° C | 65% | 1026.3 hPa | - | - | 0 W/m² | - |
| 1777339266 | 11.11° C | 63% | 1026.5 hPa | - | - | 0 W/m² | - |
| 1777338964 | 11.11° C | 62% | 1026.3 hPa | - | - | 0 W/m² | - |
| 1777338661 | 11.67° C | 61% | 1026.3 hPa | - | - | 0 W/m² | - |
* Rain since midnight (hover to see other rain measurements)
** Current wind speed in m/s (hover to see current wind gust speed)